{"data":{"norad_id":66612,"intl_designator":"2025-270AA","name":"STARLINK-36039","alt_names":[],"object_type":"PAYLOAD","status":"ACTIVE","operator":null,"country":"US","launch_date":"2025-11-22","launch_site_code":"AFETR","launch_vehicle":null,"mission":null,"orbit_class":"UNKNOWN","rcs_meters":null,"size_class":null,"mass_kg":null,"dimensions":null,"purposes":["comms"],"wikipedia_slug":null,"has_3d_model":false,"image_url":null,"decayed_at":null,"tle_current":{"epoch":"2026-09-20T16:06:04.819968Z","epoch_age_seconds":71776,"freshness":"FRESH","line1":"1 66612U 25270AA  26263.67088912  .00012169  00000+0  45101-3 0  9999","line2":"2 66612  43.0032  35.2081 0001238 282.4868  77.5845 15.27579672 47521","mean_motion":15.27579672,"eccentricity":0.0001238,"inclination_deg":43.0032,"raan_deg":35.2081,"arg_perigee_deg":282.4868,"mean_anomaly_deg":77.5845,"bstar":0.00045101,"rev_number":4752,"period_min":94.26676895449,"perigee_km":482.20066322955,"apogee_km":483.8994931501,"semimajor_km":6861.1870781898,"source":"CELESTRAK","updated_at":"2026-09-21T09:00:35.980742Z"}}}